This is the latest recevied weather packets stored in our database for station/object N5COP-13. If no packets are shown the sender has not sent any weather packets the latest 10 day(s).
| Time | Temp. | Humidity | Pressure | Rain* | Wind** | Luminosity | Snow |
|---|---|---|---|---|---|---|---|
| 1778095518 | 16.67° C | 42% | 1015.4 hPa | 0 mm | - | 927 W/m² | - |
| 1778095214 | 17.22° C | 41% | 1015.4 hPa | 0 mm | - | 710 W/m² | - |
| 1778094911 | 17.22° C | 42% | 1015.8 hPa | 0 mm | - | 962 W/m² | - |
| 1778094607 | 16.67° C | 44% | 1015.5 hPa | 0 mm | - | 996 W/m² | - |
| 1778094304 | 15.56° C | 44% | 1016 hPa | 0 mm | - | 308 W/m² | - |
| 1778094000 | 16.11° C | 44% | 1016.1 hPa | 0 mm | - | 937 W/m² | - |
| 1778093698 | 15.56° C | 44% | 1016 hPa | 0 mm | - | 1042 W/m² | - |
| 1778093395 | 15.56° C | 45% | 1016.1 hPa | 0 mm | - | 1049 W/m² | - |
| 1778093092 | 15.56° C | 44% | 1016.2 hPa | 0 mm | - | 300 W/m² | - |
| 1778092789 | 16.67° C | 44% | 1016.3 hPa | 0 mm | - | 215 W/m² | - |
| 1778092484 | 16.11° C | 46% | 1016 hPa | 0 mm | - | 911 W/m² | - |
| 1778092181 | 15.56° C | 46% | 1016.2 hPa | 0 mm | - | 886 W/m² | - |
| 1778091879 | 15.56° C | 45% | 1016.5 hPa | 0 mm | - | 227 W/m² | - |
| 1778091576 | 16.11° C | 46% | 1016.3 hPa | 0 mm | - | 886 W/m² | - |
| 1778091273 | 15.56° C | 47% | 1016.5 hPa | 0 mm | - | 923 W/m² | - |
| 1778090970 | 15° C | 48% | 1016.9 hPa | 0 mm | - | 971 W/m² | - |
| 1778090666 | 13.89° C | 48% | 1016.8 hPa | 0 mm | - | 955 W/m² | - |
| 1778090358 | 15° C | 47% | 1016.8 hPa | 0 mm | - | 346 W/m² | - |
| 1778090055 | 14.44° C | 49% | 1016.8 hPa | 0 mm | - | 954 W/m² | - |
| 1778089751 | 13.89° C | 49% | 1016.8 hPa | 0 mm | - | 870 W/m² | - |
| 1778089449 | 15° C | 49% | 1017.2 hPa | 0 mm | - | 269 W/m² | - |
| 1778089146 | 13.89° C | 49% | 1017 hPa | 0 mm | - | 843 W/m² | - |
| 1778088843 | 14.44° C | 50% | 1016.8 hPa | 0 mm | - | 872 W/m² | - |
| 1778088540 | 13.89° C | 50% | 1017.2 hPa | 0 mm | - | 869 W/m² | - |
| 1778088236 | 13.89° C | 50% | 1017 hPa | 0 mm | - | 872 W/m² | - |
* Rain latest hour (hover to see other rain measurements)
** Current wind speed in m/s (hover to see current wind gust speed)